Time,TemperatureF,DewpointF,PressureIn,WindDirection,WindDirectionDegrees,WindSpeedMPH,WindSpeedGustMPH,Humidity,HourlyPrecipIn,Conditions,Clouds,dailyrainin,SoftwareType,DateUTC
2013-12-25 00:01:00,24.4,5.2,30.41,NW,315,10.7,17.5,43,0.00,,,0.00,pywws,2013-12-25 05:01:00,
2013-12-25 00:02:00,24.4,5.2,30.41,NW,315,12.1,20.6,43,0.00,,,0.00,pywws,2013-12-25 05:02:00,
2013-12-25 00:03:00,24.3,5.0,30.41,NW,315,5.4,8.3,43,0.00,,,0.00,pywws,2013-12-25 05:03:00,
2013-12-25 00:06:00,24.3,5.0,30.41,NW,315,13.0,17.5,43,0.00,,,0.00,pywws,2013-12-25 05:06:00,
2013-12-25 00:10:00,24.3,5.0,30.41,North,0,4.5,6.9,43,0.00,,,0.00,pywws,2013-12-25 05:10:00,
2013-12-25 00:16:00,24.1,4.9,30.41,NW,315,6.9,11.4,43,0.00,,,0.00,pywws,2013-12-25 05:16:00,
2013-12-25 00:21:00,23.9,4.7,30.41,North,0,10.7,14.5,43,0.00,,,0.00,pywws,2013-12-25 05:21:00,
2013-12-25 00:27:00,23.9,4.7,30.41,NW,315,5.4,9.2,43,0.00,,,0.00,pywws,2013-12-25 05:27:00,
2013-12-25 00:33:00,23.7,4.5,30.41,NE,45,10.7,15.9,43,0.00,,,0.00,pywws,2013-12-25 05:33:00,
2013-12-25 00:38:00,23.7,4.5,30.42,NNW,338,9.8,15.9,43,0.00,,,0.00,pywws,2013-12-25 05:38:00,
2013-12-25 00:44:00,23.5,4.4,30.42,NW,315,11.4,22.8,43,0.00,,,0.00,pywws,2013-12-25 05:44:00,
2013-12-25 00:50:00,23.4,4.2,30.42,NW,315,13.0,15.9,43,0.00,,,0.00,pywws,2013-12-25 05:50:00,
2013-12-25 00:56:00,23.4,4.2,30.42,NW,315,10.7,14.5,43,0.00,,,0.00,pywws,2013-12-25 05:56:00,
2013-12-25 01:01:00,23.2,4.0,30.42,North,0,8.3,12.1,43,0.00,,,0.00,pywws,2013-12-25 06:01:00,
2013-12-25 01:07:00,23.0,3.9,30.42,North,0,9.2,13.0,43,0.00,,,0.00,pywws,2013-12-25 06:07:00,
2013-12-25 01:13:00,23.0,4.4,30.42,NW,315,4.5,6.0,44,0.00,,,0.00,pywws,2013-12-25 06:13:00,
2013-12-25 01:18:00,22.8,4.7,30.43,North,0,9.8,13.6,45,0.00,,,0.00,pywws,2013-12-25 06:18:00,
2013-12-25 01:24:00,22.6,4.5,30.43,NW,315,16.8,19.7,45,0.00,,,0.00,pywws,2013-12-25 06:24:00,
2013-12-25 01:29:00,22.6,4.0,30.43,NW,315,15.2,17.5,44,0.00,,,0.00,pywws,2013-12-25 06:29:00,
2013-12-25 01:35:00,22.5,3.9,30.44,North,0,11.4,16.8,44,0.00,,,0.00,pywws,2013-12-25 06:35:00,
2013-12-25 01:41:00,22.3,3.7,30.44,NW,315,12.1,15.9,44,0.00,,,0.00,pywws,2013-12-25 06:41:00,
2013-12-25 01:46:00,22.1,3.6,30.45,NW,315,13.0,19.0,44,0.00,,,0.00,pywws,2013-12-25 06:46:00,
2013-12-25 01:52:00,21.9,3.4,30.44,NW,315,18.3,21.2,44,0.00,,,0.00,pywws,2013-12-25 06:52:00,
2013-12-25 01:57:00,21.7,2.2,30.45,NW,315,12.1,16.8,42,0.00,,,0.00,pywws,2013-12-25 06:57:00,
2013-12-25 02:03:00,21.6,1.5,30.45,NW,315,9.8,14.5,41,0.00,,,0.00,pywws,2013-12-25 07:03:00,
2013-12-25 02:09:00,21.4,1.4,30.45,NNW,338,9.8,15.2,41,0.00,,,0.00,pywws,2013-12-25 07:09:00,
2013-12-25 02:14:00,21.2,1.2,30.45,NNW,338,12.1,16.8,41,0.00,,,0.00,pywws,2013-12-25 07:14:00,
2013-12-25 02:20:00,21.2,1.2,30.46,North,0,5.4,7.6,41,0.00,,,0.00,pywws,2013-12-25 07:20:00,
2013-12-25 02:23:00,21.0,1.6,30.45,West,270,9.2,13.0,42,0.00,,,0.00,pywws,2013-12-25 07:23:00,
2013-12-25 02:29:00,20.8,1.9,30.46,North,0,8.3,11.4,43,0.00,,,0.00,pywws,2013-12-25 07:29:00,
2013-12-25 02:34:00,20.8,1.9,30.46,NW,315,12.1,19.0,43,0.00,,,0.00,pywws,2013-12-25 07:34:00,
2013-12-25 02:40:00,20.7,1.7,30.46,NW,315,4.5,6.9,43,0.00,,,0.00,pywws,2013-12-25 07:40:00,
2013-12-25 02:45:00,20.7,2.7,30.46,North,0,11.4,17.5,45,0.00,,,0.00,pywws,2013-12-25 07:45:00,
2013-12-25 02:51:00,20.5,2.1,30.47,NW,315,9.8,12.1,44,0.00,,,0.00,pywws,2013-12-25 07:51:00,
2013-12-25 02:57:00,20.3,2.4,30.47,West,270,8.3,12.1,45,0.00,,,0.00,pywws,2013-12-25 07:57:00,
2013-12-25 03:02:00,20.3,2.4,30.47,NW,315,6.0,9.2,45,0.00,,,0.00,pywws,2013-12-25 08:02:00,
2013-12-25 03:08:00,20.1,2.2,30.47,NW,315,7.6,9.2,45,0.00,,,0.00,pywws,2013-12-25 08:08:00,
2013-12-25 03:13:00,19.9,2.1,30.48,NW,315,13.0,18.3,45,0.00,,,0.00,pywws,2013-12-25 08:13:00,
2013-12-25 03:19:00,19.9,2.1,30.47,NNW,338,4.5,6.9,45,0.00,,,0.00,pywws,2013-12-25 08:19:00,
2013-12-25 03:25:00,19.8,1.9,30.47,West,270,4.5,9.2,45,0.00,,,0.00,pywws,2013-12-25 08:25:00,
2013-12-25 03:30:00,19.8,1.9,30.48,NW,315,7.6,15.2,45,0.00,,,0.00,pywws,2013-12-25 08:30:00,
2013-12-25 03:36:00,19.6,1.7,30.48,North,-999,10.7,12.1,45,0.00,,,0.00,pywws,2013-12-25 08:36:00,
2013-12-25 03:41:00,19.6,1.7,30.48,NW,315,6.9,9.8,45,0.00,,,0.00,pywws,2013-12-25 08:41:00,
2013-12-25 03:47:00,19.4,1.6,30.48,NW,315,6.0,9.2,45,0.00,,,0.00,pywws,2013-12-25 08:47:00,
2013-12-25 03:53:00,19.4,2.0,30.49,NW,315,8.3,13.6,46,0.00,,,0.00,pywws,2013-12-25 08:53:00,
2013-12-25 03:58:00,19.2,-0.1,30.48,NW,315,13.0,15.9,42,0.00,,,0.00,pywws,2013-12-25 08:58:00,
2013-12-25 04:04:00,19.2,-0.1,30.48,NW,315,5.4,7.6,42,0.00,,,0.00,pywws,2013-12-25 09:04:00,
2013-12-25 04:09:00,19.0,-0.2,30.48,NW,315,12.1,16.8,42,0.00,,,0.00,pywws,2013-12-25 09:09:00,
2013-12-25 04:15:00,19.0,-0.2,30.48,NNW,338,7.6,13.0,42,0.00,,,0.00,pywws,2013-12-25 09:15:00,
2013-12-25 04:21:00,18.9,-0.4,30.48,NW,315,5.4,7.6,42,0.00,,,0.00,pywws,2013-12-25 09:21:00,
2013-12-25 04:26:00,18.9,-0.4,30.48,WNW,292,3.1,6.0,42,0.00,,,0.00,pywws,2013-12-25 09:26:00,
2013-12-25 04:32:00,18.7,-0.1,30.49,NW,315,7.6,10.7,43,0.00,,,0.00,pywws,2013-12-25 09:32:00,
2013-12-25 04:37:00,18.7,-0.1,30.49,North,0,6.0,7.6,43,0.00,,,0.00,pywws,2013-12-25 09:37:00,
2013-12-25 04:43:00,18.7,-0.1,30.50,NW,315,9.8,12.1,43,0.00,,,0.00,pywws,2013-12-25 09:43:00,
2013-12-25 04:49:00,18.5,-0.2,30.50,North,0,6.0,8.3,43,0.00,,,0.00,pywws,2013-12-25 09:49:00,
2013-12-25 04:54:00,18.5,-0.2,30.50,NW,315,7.6,13.0,43,0.00,,,0.00,pywws,2013-12-25 09:54:00,
2013-12-25 05:00:00,18.5,-0.2,30.50,NW,315,8.3,11.4,43,0.00,,,0.00,pywws,2013-12-25 10:00:00,
2013-12-25 05:05:00,18.5,-0.2,30.50,NNW,338,6.9,9.2,43,0.00,,,0.00,pywws,2013-12-25 10:05:00,
2013-12-25 05:11:00,18.5,-0.2,30.50,NW,315,3.8,5.4,43,0.00,,,0.00,pywws,2013-12-25 10:11:00,
2013-12-25 05:17:00,18.5,-0.2,30.51,NW,315,4.5,5.4,43,0.00,,,0.00,pywws,2013-12-25 10:17:00,
2013-12-25 05:22:00,18.3,-0.4,30.51,North,0,6.9,9.2,43,0.00,,,0.00,pywws,2013-12-25 10:22:00,
2013-12-25 05:28:00,18.3,-0.4,30.51,North,0,5.4,8.3,43,0.00,,,0.00,pywws,2013-12-25 10:28:00,
2013-12-25 05:33:00,18.3,-0.4,30.51,NW,315,9.2,13.0,43,0.00,,,0.00,pywws,2013-12-25 10:33:00,
2013-12-25 05:39:00,18.1,-0.6,30.50,North,0,6.0,10.7,43,0.00,,,0.00,pywws,2013-12-25 10:39:00,
2013-12-25 05:45:00,18.1,-0.6,30.51,NW,315,12.1,15.9,43,0.00,,,0.00,pywws,2013-12-25 10:45:00,
2013-12-25 05:50:00,18.1,-0.6,30.51,NW,315,6.0,11.4,43,0.00,,,0.00,pywws,2013-12-25 10:50:00,
2013-12-25 05:56:00,18.0,-0.7,30.51,NW,315,9.8,13.6,43,0.00,,,0.00,pywws,2013-12-25 10:56:00,
2013-12-25 06:01:00,18.0,-0.7,30.51,NW,315,6.0,8.3,43,0.00,,,0.00,pywws,2013-12-25 11:01:00,
2013-12-25 06:07:00,18.0,-0.7,30.51,North,0,5.4,7.6,43,0.00,,,0.00,pywws,2013-12-25 11:07:00,
2013-12-25 06:13:00,18.0,-0.7,30.51,NW,315,6.0,10.7,43,0.00,,,0.00,pywws,2013-12-25 11:13:00,
2013-12-25 06:18:00,17.8,-0.9,30.52,NW,315,5.4,8.3,43,0.00,,,0.00,pywws,2013-12-25 11:18:00,
2013-12-25 06:24:00,17.8,-0.9,30.52,NW,315,5.4,6.9,43,0.00,,,0.00,pywws,2013-12-25 11:24:00,
2013-12-25 06:29:00,17.8,-0.9,30.52,NW,315,10.7,14.5,43,0.00,,,0.00,pywws,2013-12-25 11:29:00,
2013-12-25 06:35:00,17.8,-0.9,30.52,NW,315,8.3,12.1,43,0.00,,,0.00,pywws,2013-12-25 11:35:00,
2013-12-25 06:41:00,17.8,-0.9,30.53,North,0,6.0,9.2,43,0.00,,,0.00,pywws,2013-12-25 11:41:00,
2013-12-25 06:46:00,17.6,-1.0,30.53,NW,315,6.0,8.3,43,0.00,,,0.00,pywws,2013-12-25 11:46:00,
2013-12-25 06:52:00,17.6,-1.0,30.53,NW,315,7.6,11.4,43,0.00,,,0.00,pywws,2013-12-25 11:52:00,
2013-12-25 06:57:00,17.6,-1.0,30.53,NNW,338,6.0,7.6,43,0.00,,,0.00,pywws,2013-12-25 11:57:00,
2013-12-25 07:03:00,17.4,-0.7,30.53,North,0,3.1,5.4,44,0.00,,,0.00,pywws,2013-12-25 12:03:00,
2013-12-25 07:09:00,17.4,-0.7,30.53,North,0,3.8,7.6,44,0.00,,,0.00,pywws,2013-12-25 12:09:00,
2013-12-25 07:14:00,17.4,-0.2,30.53,NNW,338,6.0,8.3,45,0.00,,,0.00,pywws,2013-12-25 12:14:00,
2013-12-25 07:20:00,17.4,-0.2,30.54,NW,315,3.8,5.4,45,0.00,,,0.00,pywws,2013-12-25 12:20:00,
2013-12-25 07:25:00,17.2,-0.4,30.54,North,0,3.1,4.5,45,0.00,,,0.00,pywws,2013-12-25 12:25:00,
2013-12-25 07:31:00,17.2,-0.4,30.54,NW,315,2.2,3.1,45,0.00,,,0.00,pywws,2013-12-25 12:31:00,
2013-12-25 07:37:00,17.2,-0.4,30.55,NW,315,6.9,8.3,45,0.00,,,0.00,pywws,2013-12-25 12:37:00,
2013-12-25 07:42:00,17.2,-0.4,30.55,NW,315,3.1,6.0,45,0.00,,,0.00,pywws,2013-12-25 12:42:00,
2013-12-25 07:48:00,17.4,-0.2,30.55,North,0,1.6,3.1,45,0.00,,,0.00,pywws,2013-12-25 12:48:00,
2013-12-25 07:53:00,17.4,0.2,30.55,North,0,3.1,5.4,46,0.00,,,0.00,pywws,2013-12-25 12:53:00,
2013-12-25 07:59:00,17.6,-0.1,30.55,NNW,338,5.4,6.9,45,0.00,,,0.00,pywws,2013-12-25 12:59:00,
2013-12-25 08:05:00,17.6,-0.6,30.55,NW,315,3.8,7.6,44,0.00,,,0.00,pywws,2013-12-25 13:05:00,
2013-12-25 08:10:00,17.8,-0.4,30.55,NW,315,5.4,6.9,44,0.00,,,0.00,pywws,2013-12-25 13:10:00,
2013-12-25 08:16:00,17.8,-0.4,30.55,NW,315,3.8,5.4,44,0.00,,,0.00,pywws,2013-12-25 13:16:00,
2013-12-25 08:21:00,18.0,-0.2,30.55,NW,315,5.4,8.3,44,0.00,,,0.00,pywws,2013-12-25 13:21:00,
2013-12-25 08:27:00,18.1,-0.1,30.55,NW,315,6.0,8.3,44,0.00,,,0.00,pywws,2013-12-25 13:27:00,
2013-12-25 08:33:00,18.1,-0.6,30.55,NNW,338,7.6,9.2,43,0.00,,,0.00,pywws,2013-12-25 13:33:00,
2013-12-25 08:38:00,18.3,-0.4,30.56,WNW,292,6.9,7.6,43,0.00,,,0.00,pywws,2013-12-25 13:38:00,
2013-12-25 08:44:00,18.7,-0.1,30.56,NW,315,5.4,8.3,43,0.00,,,0.00,pywws,2013-12-25 13:44:00,
2013-12-25 08:49:00,18.9,0.1,30.56,NW,315,3.1,4.5,43,0.00,,,0.00,pywws,2013-12-25 13:49:00,
2013-12-25 08:55:00,19.0,0.3,30.57,NNW,338,6.0,10.7,43,0.00,,,0.00,pywws,2013-12-25 13:55:00,
2013-12-25 09:01:00,19.2,0.4,30.57,NW,315,4.5,6.9,43,0.00,,,0.00,pywws,2013-12-25 14:01:00,
2013-12-25 09:06:00,19.6,2.7,30.58,NW,315,6.0,9.2,47,0.00,,,0.00,pywws,2013-12-25 14:06:00,
2013-12-25 09:12:00,19.8,2.8,30.58,North,0,5.4,8.3,47,0.00,,,0.00,pywws,2013-12-25 14:12:00,
2013-12-25 09:17:00,19.8,2.4,30.58,NW,315,3.8,6.0,46,0.00,,,0.00,pywws,2013-12-25 14:17:00,
2013-12-25 09:23:00,20.1,2.7,30.57,NW,315,6.0,8.3,46,0.00,,,0.00,pywws,2013-12-25 14:23:00,
2013-12-25 09:29:00,19.9,2.5,30.57,NW,315,7.6,9.2,46,0.00,,,0.00,pywws,2013-12-25 14:29:00,
2013-12-25 09:34:00,19.9,2.5,30.57,West,270,5.4,7.6,46,0.00,,,0.00,pywws,2013-12-25 14:34:00,
2013-12-25 09:40:00,20.3,2.9,30.58,NW,315,4.5,6.0,46,0.00,,,0.00,pywws,2013-12-25 14:40:00,
2013-12-25 09:45:00,20.5,3.0,30.57,NNW,338,5.4,8.3,46,0.00,,,0.00,pywws,2013-12-25 14:45:00,
2013-12-25 09:51:00,20.7,3.2,30.58,NW,315,6.9,9.8,46,0.00,,,0.00,pywws,2013-12-25 14:51:00,
2013-12-25 09:57:00,20.7,3.2,30.57,North,0,5.4,9.2,46,0.00,,,0.00,pywws,2013-12-25 14:57:00,
2013-12-25 10:02:00,20.8,3.4,30.56,NW,315,5.4,8.3,46,0.00,,,0.00,pywws,2013-12-25 15:02:00,
2013-12-25 10:08:00,20.8,2.9,30.57,NW,315,8.3,10.7,45,0.00,,,0.00,pywws,2013-12-25 15:08:00,
2013-12-25 10:13:00,20.8,2.9,30.57,North,0,3.8,6.9,45,0.00,,,0.00,pywws,2013-12-25 15:13:00,
2013-12-25 10:19:00,21.4,3.4,30.57,NE,45,2.2,3.8,45,0.00,,,0.00,pywws,2013-12-25 15:19:00,
2013-12-25 10:25:00,22.1,4.0,30.57,North,0,4.5,6.0,45,0.00,,,0.00,pywws,2013-12-25 15:25:00,
2013-12-25 10:30:00,22.3,3.7,30.57,North,0,6.0,8.3,44,0.00,,,0.00,pywws,2013-12-25 15:30:00,
2013-12-25 10:36:00,22.5,3.9,30.57,North,0,3.8,6.0,44,0.00,,,0.00,pywws,2013-12-25 15:36:00,
2013-12-25 10:41:00,22.6,4.0,30.57,North,0,4.5,6.0,44,0.00,,,0.00,pywws,2013-12-25 15:41:00,
2013-12-25 10:47:00,22.6,4.0,30.56,NE,45,3.8,4.5,44,0.00,,,0.00,pywws,2013-12-25 15:47:00,
2013-12-25 10:53:00,22.8,4.2,30.56,North,0,6.0,7.6,44,0.00,,,0.00,pywws,2013-12-25 15:53:00,
2013-12-25 10:58:00,22.6,4.0,30.56,North,0,3.8,6.9,44,0.00,,,0.00,pywws,2013-12-25 15:58:00,
2013-12-25 11:04:00,22.6,3.0,30.56,North,0,3.8,5.4,42,0.00,,,0.00,pywws,2013-12-25 16:04:00,
2013-12-25 11:09:00,22.6,3.0,30.55,North,0,2.2,3.8,42,0.00,,,0.00,pywws,2013-12-25 16:09:00,
2013-12-25 11:15:00,22.6,3.0,30.56,West,270,1.6,3.1,42,0.00,,,0.00,pywws,2013-12-25 16:15:00,
2013-12-25 11:21:00,23.0,3.9,30.55,NW,315,6.9,9.2,43,0.00,,,0.00,pywws,2013-12-25 16:21:00,
2013-12-25 11:26:00,23.2,4.0,30.55,NNE,22,3.1,3.8,43,0.00,,,0.00,pywws,2013-12-25 16:26:00,
2013-12-25 11:32:00,23.2,4.0,30.55,NE,45,0.7,1.6,43,0.00,,,0.00,pywws,2013-12-25 16:32:00,
2013-12-25 11:37:00,23.2,3.0,30.54,North,0,4.5,6.9,41,0.00,,,0.00,pywws,2013-12-25 16:37:00,
2013-12-25 11:43:00,23.5,4.4,30.55,NW,315,0.7,3.1,43,0.00,,,0.00,pywws,2013-12-25 16:43:00,
2013-12-25 11:49:00,23.5,2.8,30.55,NW,315,4.5,6.9,40,0.00,,,0.00,pywws,2013-12-25 16:49:00,
2013-12-25 11:54:00,23.4,3.2,30.55,West,270,4.5,5.4,41,0.00,,,0.00,pywws,2013-12-25 16:54:00,
2013-12-25 12:00:00,23.4,4.2,30.55,West,270,3.8,5.4,43,0.00,,,0.00,pywws,2013-12-25 17:00:00,
2013-12-25 12:05:00,23.5,4.4,30.55,West,270,2.2,4.5,43,0.00,,,0.00,pywws,2013-12-25 17:05:00,
2013-12-25 12:11:00,23.7,3.5,30.55,North,0,6.0,8.3,41,0.00,,,0.00,pywws,2013-12-25 17:11:00,
2013-12-25 12:17:00,24.3,4.0,30.55,NW,315,1.6,3.1,41,0.00,,,0.00,pywws,2013-12-25 17:17:00,
2013-12-25 12:22:00,24.4,4.2,30.55,NW,315,3.8,6.0,41,0.00,,,0.00,pywws,2013-12-25 17:22:00,
2013-12-25 12:28:00,24.8,3.9,30.54,NE,45,3.1,4.5,40,0.00,,,0.00,pywws,2013-12-25 17:28:00,
2013-12-25 12:33:00,25.0,4.1,30.54,NE,45,2.2,3.8,40,0.00,,,0.00,pywws,2013-12-25 17:33:00,
2013-12-25 12:39:00,25.3,4.4,30.53,North,0,5.4,6.9,40,0.00,,,0.00,pywws,2013-12-25 17:39:00,
2013-12-25 12:45:00,25.5,4.0,30.53,East,90,0.7,2.2,39,0.00,,,0.00,pywws,2013-12-25 17:45:00,
2013-12-25 12:50:00,25.7,3.6,30.53,NNW,338,6.0,8.3,38,0.00,,,0.00,pywws,2013-12-25 17:50:00,
2013-12-25 12:56:00,26.1,4.0,30.54,NE,45,2.2,3.1,38,0.00,,,0.00,pywws,2013-12-25 17:56:00,
2013-12-25 13:01:00,26.2,4.7,30.54,NE,45,1.6,2.2,39,0.00,,,0.00,pywws,2013-12-25 18:01:00,
2013-12-25 13:07:00,26.1,3.4,30.53,West,270,0.0,0.7,37,0.00,,,0.00,pywws,2013-12-25 18:07:00,
2013-12-25 13:13:00,26.1,3.4,30.53,North,0,7.6,10.7,37,0.00,,,0.00,pywws,2013-12-25 18:13:00,
2013-12-25 13:18:00,25.9,2.6,30.53,North,0,0.7,1.6,36,0.00,,,0.00,pywws,2013-12-25 18:18:00,
2013-12-25 13:24:00,26.1,2.8,30.53,North,0,6.9,7.6,36,0.00,,,0.00,pywws,2013-12-25 18:24:00,
2013-12-25 13:29:00,26.2,3.6,30.53,NNW,338,7.6,9.2,37,0.00,,,0.00,pywws,2013-12-25 18:29:00,
2013-12-25 13:35:00,26.6,2.7,30.53,North,0,0.7,2.2,35,0.00,,,0.00,pywws,2013-12-25 18:35:00,
2013-12-25 13:41:00,26.6,2.7,30.53,North,0,4.5,6.0,35,0.00,,,0.00,pywws,2013-12-25 18:41:00,
2013-12-25 13:46:00,26.8,2.2,30.53,NW,315,2.2,4.5,34,0.00,,,0.00,pywws,2013-12-25 18:46:00,
2013-12-25 13:52:00,26.8,2.8,30.53,North,0,2.2,3.8,35,0.00,,,0.00,pywws,2013-12-25 18:52:00,
2013-12-25 13:57:00,27.0,3.0,30.53,NE,45,0.7,1.6,35,0.00,,,0.00,pywws,2013-12-25 18:57:00,
2013-12-25 14:03:00,27.0,3.0,30.53,North,0,3.8,5.4,35,0.00,,,0.00,pywws,2013-12-25 19:03:00,
2013-12-25 14:09:00,27.0,3.0,30.53,West,270,3.1,5.4,35,0.00,,,0.00,pywws,2013-12-25 19:09:00,
2013-12-25 14:14:00,27.3,3.9,30.54,NW,315,0.7,1.6,36,0.00,,,0.00,pywws,2013-12-25 19:14:00,
2013-12-25 14:20:00,27.3,3.9,30.53,North,0,0.7,2.2,36,0.00,,,0.00,pywws,2013-12-25 19:20:00,
2013-12-25 14:25:00,27.3,3.3,30.53,SSW,202,2.2,3.1,35,0.00,,,0.00,pywws,2013-12-25 19:25:00,
2013-12-25 14:31:00,27.1,3.2,30.53,NW,315,2.2,2.2,35,0.00,,,0.00,pywws,2013-12-25 19:31:00,
2013-12-25 14:37:00,27.0,2.4,30.53,NW,315,3.1,4.5,34,0.00,,,0.00,pywws,2013-12-25 19:37:00,
2013-12-25 14:42:00,27.0,2.4,30.53,NW,315,1.6,2.2,34,0.00,,,0.00,pywws,2013-12-25 19:42:00,
2013-12-25 14:48:00,27.0,2.4,30.53,NNW,338,0.7,1.6,34,0.00,,,0.00,pywws,2013-12-25 19:48:00,
2013-12-25 14:49:00,27.0,2.4,30.53,NNW,338,0.0,0.0,34,0.00,,,0.00,pywws,2013-12-25 19:49:00,
2013-12-25 14:55:00,27.0,3.0,30.53,NE,45,0.0,0.7,35,0.00,,,0.00,pywws,2013-12-25 19:55:00,
2013-12-25 15:01:00,27.0,3.0,30.54,NE,45,0.0,0.0,35,0.00,,,0.00,pywws,2013-12-25 20:01:00,
2013-12-25 15:06:00,27.3,3.9,30.54,NE,45,0.7,3.1,36,0.00,,,0.00,pywws,2013-12-25 20:06:00,
2013-12-25 15:12:00,27.5,4.1,30.54,SE,135,0.7,2.2,36,0.00,,,0.00,pywws,2013-12-25 20:12:00,
2013-12-25 15:17:00,27.7,4.8,30.55,SW,225,0.7,2.2,37,0.00,,,0.00,pywws,2013-12-25 20:17:00,
2013-12-25 15:23:00,27.7,4.8,30.54,SSW,202,0.7,2.2,37,0.00,,,0.00,pywws,2013-12-25 20:23:00,
2013-12-25 15:29:00,27.5,4.1,30.54,SE,135,2.2,3.8,36,0.00,,,0.00,pywws,2013-12-25 20:29:00,
2013-12-25 15:34:00,27.3,3.3,30.54,SE,135,1.6,2.2,35,0.00,,,0.00,pywws,2013-12-25 20:34:00,
2013-12-25 15:40:00,27.3,3.9,30.54,East,90,0.7,1.6,36,0.00,,,0.00,pywws,2013-12-25 20:40:00,
2013-12-25 15:45:00,27.3,3.9,30.55,East,90,0.0,0.7,36,0.00,,,0.00,pywws,2013-12-25 20:45:00,
2013-12-25 15:51:00,27.1,4.4,30.55,SSW,202,0.7,2.2,37,0.00,,,0.00,pywws,2013-12-25 20:51:00,
2013-12-25 15:56:00,27.0,4.2,30.55,SW,225,0.0,0.7,37,0.00,,,0.00,pywws,2013-12-25 20:56:00,
2013-12-25 16:02:00,27.0,3.6,30.55,SW,225,1.6,3.8,36,0.00,,,0.00,pywws,2013-12-25 21:02:00,
2013-12-25 16:08:00,27.0,4.2,30.55,SW,225,0.7,1.6,37,0.00,,,0.00,pywws,2013-12-25 21:08:00,
2013-12-25 16:13:00,27.0,3.6,30.54,SE,135,0.0,0.0,36,0.00,,,0.00,pywws,2013-12-25 21:13:00,
2013-12-25 16:19:00,27.0,3.6,30.55,SE,135,0.7,1.6,36,0.00,,,0.00,pywws,2013-12-25 21:19:00,
2013-12-25 16:25:00,26.8,4.0,30.55,SE,135,0.0,0.7,37,0.00,,,0.00,pywws,2013-12-25 21:25:00,
2013-12-25 16:31:00,26.8,4.0,30.55,SE,135,0.0,0.0,37,0.00,,,0.00,pywws,2013-12-25 21:31:00,
2013-12-25 16:36:00,26.8,4.0,30.55,SE,135,0.7,1.6,37,0.00,,,0.00,pywws,2013-12-25 21:36:00,
2013-12-25 16:42:00,26.8,4.0,30.55,SE,135,0.0,0.0,37,0.00,,,0.00,pywws,2013-12-25 21:42:00,
2013-12-25 16:48:00,26.8,4.0,30.55,SE,135,0.0,0.0,37,0.00,,,0.00,pywws,2013-12-25 21:48:00,
2013-12-25 16:53:00,26.8,4.0,30.56,SE,135,0.7,1.6,37,0.00,,,0.00,pywws,2013-12-25 21:53:00,
2013-12-25 16:59:00,26.8,4.0,30.55,SE,135,0.0,0.0,37,0.00,,,0.00,pywws,2013-12-25 21:59:00,
2013-12-25 17:04:00,26.6,3.9,30.55,SE,135,0.0,0.0,37,0.00,,,0.00,pywws,2013-12-25 22:04:00,
2013-12-25 17:10:00,26.8,4.0,30.55,SE,135,0.7,1.6,37,0.00,,,0.00,pywws,2013-12-25 22:10:00,
2013-12-25 17:16:00,26.8,4.6,30.55,SE,135,0.7,1.6,38,0.00,,,0.00,pywws,2013-12-25 22:16:00,
2013-12-25 17:21:00,26.8,4.0,30.55,SE,135,0.7,2.2,37,0.00,,,0.00,pywws,2013-12-25 22:21:00,
2013-12-25 17:27:00,26.6,3.9,30.55,East,90,2.2,3.1,37,0.00,,,0.00,pywws,2013-12-25 22:27:00,
2013-12-25 17:32:00,26.8,4.0,30.55,East,90,0.0,0.0,37,0.00,,,0.00,pywws,2013-12-25 22:32:00,
2013-12-25 17:38:00,26.8,4.6,30.55,East,90,1.6,3.1,38,0.00,,,0.00,pywws,2013-12-25 22:38:00,
2013-12-25 17:44:00,26.8,4.6,30.55,ESE,112,0.0,0.7,38,0.00,,,0.00,pywws,2013-12-25 22:44:00,
2013-12-25 17:49:00,26.6,3.9,30.55,ESE,112,1.6,2.2,37,0.00,,,0.00,pywws,2013-12-25 22:49:00,
2013-12-25 17:55:00,26.6,3.9,30.55,ESE,112,0.0,0.0,37,0.00,,,0.00,pywws,2013-12-25 22:55:00,
2013-12-25 18:01:00,26.6,4.5,30.55,ESE,112,0.0,0.0,38,0.00,,,0.00,pywws,2013-12-25 23:01:00,
2013-12-25 18:07:00,26.6,5.0,30.55,SE,135,0.0,0.7,39,0.00,,,0.00,pywws,2013-12-25 23:07:00,
2013-12-25 18:13:00,26.6,5.0,30.55,SE,135,0.0,0.7,39,0.00,,,0.00,pywws,2013-12-25 23:13:00,
2013-12-25 18:19:00,26.4,5.4,30.55,South,180,0.0,1.6,40,0.00,,,0.00,pywws,2013-12-25 23:19:00,
2013-12-25 18:25:00,26.4,4.9,30.55,South,180,0.0,0.7,39,0.00,,,0.00,pywws,2013-12-25 23:25:00,
2013-12-25 18:31:00,26.4,4.9,30.55,South,180,0.7,1.6,39,0.00,,,0.00,pywws,2013-12-25 23:31:00,
2013-12-25 18:36:00,26.2,5.2,30.55,SW,225,3.1,4.5,40,0.00,,,0.00,pywws,2013-12-25 23:36:00,
2013-12-25 18:42:00,26.2,4.7,30.55,SSW,202,1.6,2.2,39,0.00,,,0.00,pywws,2013-12-25 23:42:00,
2013-12-25 18:48:00,26.2,4.7,30.55,SSW,202,0.7,2.2,39,0.00,,,0.00,pywws,2013-12-25 23:48:00,
2013-12-25 18:53:00,26.2,4.7,30.55,SSW,202,0.0,0.0,39,0.00,,,0.00,pywws,2013-12-25 23:53:00,
2013-12-25 18:59:00,26.2,4.7,30.55,South,180,0.0,0.7,39,0.00,,,0.00,pywws,2013-12-25 23:59:00,
2013-12-25 19:04:00,26.2,5.2,30.55,South,180,0.0,0.7,40,0.00,,,0.00,pywws,2013-12-26 00:04:00,
2013-12-25 19:10:00,26.2,5.2,30.55,SE,135,0.0,0.0,40,0.00,,,0.00,pywws,2013-12-26 00:10:00,
2013-12-25 19:16:00,26.2,5.2,30.56,SE,135,0.0,0.0,40,0.00,,,0.00,pywws,2013-12-26 00:16:00,
2013-12-25 19:21:00,26.2,5.8,30.55,SE,135,0.0,0.0,41,0.00,,,0.00,pywws,2013-12-26 00:21:00,
2013-12-25 19:27:00,26.2,5.2,30.55,SE,135,0.7,1.6,40,0.00,,,0.00,pywws,2013-12-26 00:27:00,
2013-12-25 19:32:00,26.2,5.8,30.55,SE,135,0.0,0.7,41,0.00,,,0.00,pywws,2013-12-26 00:32:00,
2013-12-25 19:38:00,26.4,5.9,30.54,SE,135,0.7,1.6,41,0.00,,,0.00,pywws,2013-12-26 00:38:00,
2013-12-25 19:44:00,26.4,5.4,30.54,SE,135,0.7,1.6,40,0.00,,,0.00,pywws,2013-12-26 00:44:00,
2013-12-25 19:50:00,26.6,5.6,30.55,SE,135,0.0,0.7,40,0.00,,,0.00,pywws,2013-12-26 00:50:00,
2013-12-25 19:56:00,26.6,6.1,30.55,SE,135,0.0,0.0,41,0.00,,,0.00,pywws,2013-12-26 00:56:00,
2013-12-25 20:01:00,26.6,6.1,30.55,SE,135,0.0,0.0,41,0.00,,,0.00,pywws,2013-12-26 01:01:00,
2013-12-25 20:07:00,26.6,6.1,30.54,SE,135,0.0,0.0,41,0.00,,,0.00,pywws,2013-12-26 01:07:00,
2013-12-25 20:12:00,26.8,6.3,30.54,SE,135,0.0,0.0,41,0.00,,,0.00,pywws,2013-12-26 01:12:00,
2013-12-25 20:18:00,26.8,6.3,30.54,SE,135,0.7,1.6,41,0.00,,,0.00,pywws,2013-12-26 01:18:00,
2013-12-25 20:24:00,26.8,6.3,30.54,ESE,112,0.7,2.2,41,0.00,,,0.00,pywws,2013-12-26 01:24:00,
2013-12-25 20:30:00,27.0,6.4,30.54,East,90,0.7,1.6,41,0.00,,,0.00,pywws,2013-12-26 01:30:00,
2013-12-25 20:36:00,27.0,6.4,30.53,East,90,1.6,2.2,41,0.00,,,0.00,pywws,2013-12-26 01:36:00,
2013-12-25 20:41:00,27.0,6.4,30.53,East,90,2.2,3.1,41,0.00,,,0.00,pywws,2013-12-26 01:41:00,
2013-12-25 20:47:00,27.0,6.4,30.53,East,90,0.0,0.0,41,0.00,,,0.00,pywws,2013-12-26 01:47:00,
2013-12-25 20:53:00,27.0,7.0,30.53,East,90,0.0,0.0,42,0.00,,,0.00,pywws,2013-12-26 01:53:00,
2013-12-25 20:59:00,27.0,6.4,30.53,East,90,0.0,0.0,41,0.00,,,0.00,pywws,2013-12-26 01:59:00,
2013-12-25 21:05:00,27.0,6.4,30.53,East,90,0.0,0.7,41,0.00,,,0.00,pywws,2013-12-26 02:05:00,
2013-12-25 21:11:00,27.0,7.0,30.53,East,90,0.0,0.7,42,0.00,,,0.00,pywws,2013-12-26 02:11:00,
2013-12-25 21:17:00,27.0,7.0,30.53,East,90,0.0,0.0,42,0.00,,,0.00,pywws,2013-12-26 02:17:00,
2013-12-25 21:23:00,27.1,7.6,30.52,South,180,1.6,3.1,43,0.00,,,0.00,pywws,2013-12-26 02:23:00,
2013-12-25 21:28:00,27.1,7.6,30.52,SE,135,0.7,2.2,43,0.00,,,0.00,pywws,2013-12-26 02:28:00,
2013-12-25 21:34:00,27.3,7.8,30.52,SSW,202,1.6,3.8,43,0.00,,,0.00,pywws,2013-12-26 02:34:00,
2013-12-25 21:40:00,27.3,7.8,30.52,South,180,2.2,4.5,43,0.00,,,0.00,pywws,2013-12-26 02:40:00,
2013-12-25 21:45:00,27.3,7.8,30.52,South,180,0.7,3.1,43,0.00,,,0.00,pywws,2013-12-26 02:45:00,
2013-12-25 21:51:00,27.3,8.3,30.53,SW,225,2.2,3.1,44,0.00,,,0.00,pywws,2013-12-26 02:51:00,
2013-12-25 21:56:00,27.3,8.3,30.52,SW,225,4.5,6.9,44,0.00,,,0.00,pywws,2013-12-26 02:56:00,
2013-12-25 22:02:00,27.3,7.8,30.52,South,180,1.6,3.8,43,0.00,,,0.00,pywws,2013-12-26 03:02:00,
2013-12-25 22:08:00,27.1,8.2,30.52,SW,225,0.7,2.2,44,0.00,,,0.00,pywws,2013-12-26 03:08:00,
2013-12-25 22:13:00,27.1,7.6,30.52,SW,225,0.7,1.6,43,0.00,,,0.00,pywws,2013-12-26 03:13:00,
2013-12-25 22:19:00,27.0,8.0,30.52,SW,225,1.6,3.1,44,0.00,,,0.00,pywws,2013-12-26 03:19:00,
2013-12-25 22:24:00,27.0,8.0,30.51,South,180,1.6,2.2,44,0.00,,,0.00,pywws,2013-12-26 03:24:00,
2013-12-25 22:30:00,27.0,8.0,30.51,SW,225,0.0,1.6,44,0.00,,,0.00,pywws,2013-12-26 03:30:00,
2013-12-25 22:36:00,27.0,8.0,30.51,SW,225,2.2,3.1,44,0.00,,,0.00,pywws,2013-12-26 03:36:00,
2013-12-25 22:41:00,27.0,8.5,30.50,SSW,202,0.7,2.2,45,0.00,,,0.00,pywws,2013-12-26 03:41:00,
2013-12-25 22:47:00,27.0,8.5,30.50,SW,225,1.6,3.1,45,0.00,,,0.00,pywws,2013-12-26 03:47:00,
2013-12-25 22:52:00,27.0,9.0,30.50,SW,225,0.7,2.2,46,0.00,,,0.00,pywws,2013-12-26 03:52:00,
2013-12-25 22:58:00,27.0,9.4,30.50,SE,135,0.7,1.6,47,0.00,,,0.00,pywws,2013-12-26 03:58:00,
2013-12-25 23:04:00,27.0,9.9,30.50,SSW,202,1.6,3.1,48,0.00,,,0.00,pywws,2013-12-26 04:04:00,
2013-12-25 23:10:00,27.1,10.5,30.49,SW,225,0.0,0.7,49,0.00,,,0.00,pywws,2013-12-26 04:10:00,
2013-12-25 23:16:00,27.3,11.2,30.50,SW,225,0.7,2.2,50,0.00,,,0.00,pywws,2013-12-26 04:16:00,
2013-12-25 23:21:00,27.3,11.6,30.50,SW,225,1.6,3.1,51,0.00,,,0.00,pywws,2013-12-26 04:21:00,
2013-12-25 23:27:00,27.3,11.2,30.49,SW,225,0.7,1.6,50,0.00,,,0.00,pywws,2013-12-26 04:27:00,
2013-12-25 23:32:00,27.3,11.2,30.48,SW,225,0.7,1.6,50,0.00,,,0.00,pywws,2013-12-26 04:32:00,
2013-12-25 23:38:00,27.3,11.2,30.48,SW,225,0.7,1.6,50,0.00,,,0.00,pywws,2013-12-26 04:38:00,
2013-12-25 23:44:00,27.3,11.6,30.48,SW,225,0.7,2.2,51,0.00,,,0.00,pywws,2013-12-26 04:44:00,
2013-12-25 23:50:00,27.1,11.4,30.49,SW,225,2.2,3.1,51,0.00,,,0.00,pywws,2013-12-26 04:50:00,
2013-12-25 23:56:00,27.3,11.6,30.49,West,270,0.0,0.7,51,0.00,,,0.00,pywws,2013-12-26 04:56:00,